This is the latest recevied weather packets stored in our database for station/object DJ2DS-13. If no packets are shown the sender has not sent any weather packets the latest 10 day(s).
| Time | Temp. | Humidity | Pressure | Rain* | Wind** | Luminosity | Snow |
|---|---|---|---|---|---|---|---|
| 1777876386 | 10° C | 91% | 1011.7 hPa | 0 mm | - | 118 W/m² | - |
| 1777876084 | 10° C | 91% | 1011.7 hPa | 0 mm | - | 118 W/m² | - |
| 1777875785 | 10° C | 91% | 1011.6 hPa | 0 mm | - | 104 W/m² | - |
| 1777875485 | 10° C | 91% | 1011.6 hPa | 0 mm | - | 114 W/m² | - |
| 1777875183 | 10° C | 91% | 1011.7 hPa | 0 mm | - | 63 W/m² | - |
| 1777874884 | 10° C | 91% | 1011.5 hPa | 0 mm | - | 39 W/m² | - |
| 1777874583 | 10° C | 91% | 1011.4 hPa | 0 mm | - | 53 W/m² | - |
| 1777874283 | 10° C | 91% | 1011.5 hPa | 0 mm | - | 42 W/m² | - |
| 1777873983 | 10° C | 91% | 1011.5 hPa | 0 mm | - | 70 W/m² | - |
| 1777873682 | 10° C | 91% | 1011.5 hPa | 0 mm | - | 53 W/m² | - |
| 1777873382 | 10° C | 91% | 1011.6 hPa | 0 mm | - | 19 W/m² | - |
| 1777873082 | 10° C | 91% | 1011.2 hPa | 0 mm | - | 25 W/m² | - |
| 1777872781 | 10° C | 91% | 1011.1 hPa | 0 mm | - | 51 W/m² | - |
| 1777872480 | 10° C | 91% | 1011 hPa | 0 mm | - | 44 W/m² | - |
| 1777872180 | 10° C | 91% | 1011 hPa | 0 mm | - | 41 W/m² | - |
| 1777871881 | 10° C | 91% | 1011.1 hPa | 0 mm | - | 28 W/m² | - |
| 1777871579 | 10° C | 91% | 1011.1 hPa | 0 mm | - | 30 W/m² | - |
| 1777871278 | 10° C | 91% | 1011.1 hPa | 0 mm | - | 25 W/m² | - |
| 1777870978 | 10° C | 91% | 1011 hPa | 0 mm | - | 25 W/m² | - |
| 1777870677 | 9.44° C | 91% | 1011.2 hPa | 0 mm | - | 19 W/m² | - |
| 1777870378 | 10° C | 91% | 1011 hPa | 0 mm | - | 16 W/m² | - |
| 1777870077 | 10° C | 91% | 1010.9 hPa | 0 mm | - | 14 W/m² | - |
| 1777869774 | 9.44° C | 91% | 1010.9 hPa | 0 mm | - | 11 W/m² | - |
| 1777869474 | 9.44° C | 91% | 1010.9 hPa | 0 mm | - | 9 W/m² | - |
| 1777869175 | 9.44° C | 91% | 1010.8 hPa | 0 mm | - | 11 W/m² | - |
* Rain latest hour (hover to see other rain measurements)
** Current wind speed in m/s (hover to see current wind gust speed)